Time,TemperatureF,DewpointF,PressureIn,WindDirection,WindDirectionDegrees,WindSpeedMPH,WindSpeedGustMPH,Humidity,HourlyPrecipIn,Conditions,Clouds,dailyrainin,SoftwareType,DateUTC
2013-05-30 00:03:00,57.7,46.0,29.90,NW,308,0.0,3.0,65,0.00,,,0.00,Wunderground v.1.15,2013-05-30 07:03:00,
2013-05-30 00:09:00,57.5,46.2,29.90,NW,309,0.0,3.0,66,0.00,,,0.00,Wunderground v.1.15,2013-05-30 07:09:00,
2013-05-30 00:15:00,57.4,46.1,29.90,NW,309,1.0,3.0,66,0.00,,,0.00,Wunderground v.1.15,2013-05-30 07:15:00,
2013-05-30 00:21:00,57.2,45.9,29.90,NW,309,1.0,1.0,66,0.00,,,0.00,Wunderground v.1.15,2013-05-30 07:21:00,
2013-05-30 00:27:00,57.1,45.8,29.90,NW,311,1.0,3.0,66,0.00,,,0.00,Wunderground v.1.15,2013-05-30 07:27:00,
2013-05-30 00:33:00,56.9,46.1,29.90,NW,311,1.0,3.0,67,0.00,,,0.00,Wunderground v.1.15,2013-05-30 07:33:00,
2013-05-30 00:39:00,56.7,45.9,29.90,NW,311,1.0,3.0,67,0.00,,,0.00,Wunderground v.1.15,2013-05-30 07:39:00,
2013-05-30 00:45:00,56.6,45.8,29.90,NW,311,1.0,3.0,67,0.00,,,0.00,Wunderground v.1.15,2013-05-30 07:45:00,
2013-05-30 00:51:00,56.3,45.5,29.90,NW,311,1.0,3.0,67,0.00,,,0.00,Wunderground v.1.15,2013-05-30 07:51:00,
2013-05-30 00:57:00,56.0,45.6,29.90,NNW,332,1.0,3.0,68,0.00,,,0.00,Wunderground v.1.15,2013-05-30 07:57:00,
2013-05-30 01:03:00,55.9,45.5,29.90,NNW,331,1.0,3.0,68,0.00,,,0.00,Wunderground v.1.15,2013-05-30 08:03:00,
2013-05-30 01:09:00,55.7,45.3,29.90,NNW,327,1.0,3.0,68,0.00,,,0.00,Wunderground v.1.15,2013-05-30 08:09:00,
2013-05-30 01:15:00,55.5,45.5,29.89,NW,320,1.0,3.0,69,0.00,,,0.00,Wunderground v.1.15,2013-05-30 08:15:00,
2013-05-30 01:21:00,55.3,45.3,29.89,NW,320,1.0,1.0,69,0.00,,,0.00,Wunderground v.1.15,2013-05-30 08:21:00,
2013-05-30 01:27:00,55.1,45.1,29.89,NW,320,0.0,3.0,69,0.00,,,0.00,Wunderground v.1.15,2013-05-30 08:27:00,
2013-05-30 01:33:00,54.9,45.3,29.89,NW,320,0.0,3.0,70,0.00,,,0.00,Wunderground v.1.15,2013-05-30 08:33:00,
2013-05-30 01:39:00,54.8,45.2,29.89,NW,320,0.0,3.0,70,0.00,,,0.00,Wunderground v.1.15,2013-05-30 08:39:00,
2013-05-30 01:45:00,54.6,45.0,29.89,NW,320,0.0,3.0,70,0.00,,,0.00,Wunderground v.1.15,2013-05-30 08:45:00,
2013-05-30 01:51:00,54.5,45.3,29.89,NW,320,1.0,1.0,71,0.00,,,0.00,Wunderground v.1.15,2013-05-30 08:51:00,
2013-05-30 01:57:00,54.3,45.1,29.89,NW,320,0.0,3.0,71,0.00,,,0.00,Wunderground v.1.15,2013-05-30 08:57:00,
2013-05-30 02:03:00,54.1,44.9,29.89,NW,320,0.0,3.0,71,0.00,,,0.00,Wunderground v.1.15,2013-05-30 09:03:00,
2013-05-30 02:09:00,53.9,45.1,29.89,NW,320,0.0,3.0,72,0.00,,,0.00,Wunderground v.1.15,2013-05-30 09:09:00,
2013-05-30 02:15:00,53.7,44.9,29.89,NW,320,0.0,3.0,72,0.00,,,0.00,Wunderground v.1.15,2013-05-30 09:15:00,
2013-05-30 02:21:00,53.6,44.8,29.89,NW,320,1.0,1.0,72,0.00,,,0.00,Wunderground v.1.15,2013-05-30 09:21:00,
2013-05-30 02:27:00,53.5,44.7,29.89,NW,320,1.0,3.0,72,0.00,,,0.00,Wunderground v.1.15,2013-05-30 09:27:00,
2013-05-30 02:33:00,53.5,45.1,29.89,NW,320,0.0,3.0,73,0.00,,,0.00,Wunderground v.1.15,2013-05-30 09:33:00,
2013-05-30 02:39:00,53.3,44.9,29.89,NW,320,0.0,3.0,73,0.00,,,0.00,Wunderground v.1.15,2013-05-30 09:39:00,
2013-05-30 02:45:00,53.1,44.7,29.89,NW,320,0.0,3.0,73,0.00,,,0.00,Wunderground v.1.15,2013-05-30 09:45:00,
2013-05-30 02:51:00,53.0,44.6,29.89,West,274,0.0,3.0,73,0.00,,,0.00,Wunderground v.1.15,2013-05-30 09:51:00,
2013-05-30 02:57:00,52.7,44.6,29.89,West,274,0.0,3.0,74,0.00,,,0.00,Wunderground v.1.15,2013-05-30 09:57:00,
2013-05-30 03:03:00,52.5,44.4,29.89,West,274,0.0,3.0,74,0.00,,,0.00,Wunderground v.1.15,2013-05-30 10:03:00,
2013-05-30 03:09:00,52.3,44.3,29.89,West,274,0.0,3.0,74,0.00,,,0.00,Wunderground v.1.15,2013-05-30 10:09:00,
2013-05-30 03:15:00,52.0,44.3,29.89,West,274,0.0,3.0,75,0.00,,,0.00,Wunderground v.1.15,2013-05-30 10:15:00,
2013-05-30 03:21:00,51.8,44.1,29.89,West,274,0.0,3.0,75,0.00,,,0.00,Wunderground v.1.15,2013-05-30 10:21:00,
2013-05-30 03:27:00,51.6,44.3,29.90,West,274,0.0,3.0,76,0.00,,,0.00,Wunderground v.1.15,2013-05-30 10:27:00,
2013-05-30 03:33:00,51.5,44.2,29.90,West,274,0.0,3.0,76,0.00,,,0.00,Wunderground v.1.15,2013-05-30 10:33:00,
2013-05-30 03:39:00,51.4,44.1,29.90,West,274,0.0,3.0,76,0.00,,,0.00,Wunderground v.1.15,2013-05-30 10:39:00,
2013-05-30 03:45:00,51.3,44.0,29.90,West,274,0.0,3.0,76,0.00,,,0.00,Wunderground v.1.15,2013-05-30 10:45:00,
2013-05-30 03:51:00,51.1,44.1,29.90,West,274,0.0,3.0,77,0.00,,,0.00,Wunderground v.1.15,2013-05-30 10:51:00,
2013-05-30 03:57:00,51.0,44.0,29.91,West,274,0.0,3.0,77,0.00,,,0.00,Wunderground v.1.15,2013-05-30 10:57:00,
2013-05-30 04:03:00,50.9,43.9,29.91,West,274,0.0,3.0,77,0.00,,,0.00,Wunderground v.1.15,2013-05-30 11:03:00,
2013-05-30 04:09:00,50.8,43.8,29.91,West,274,0.0,3.0,77,0.00,,,0.00,Wunderground v.1.15,2013-05-30 11:09:00,
2013-05-30 04:15:00,50.6,43.7,29.90,West,274,0.0,3.0,77,0.00,,,0.00,Wunderground v.1.15,2013-05-30 11:15:00,
2013-05-30 04:21:00,50.4,43.5,29.90,West,274,0.0,3.0,77,0.00,,,0.00,Wunderground v.1.15,2013-05-30 11:21:00,
2013-05-30 04:27:00,50.2,43.6,29.91,West,274,0.0,3.0,78,0.00,,,0.00,Wunderground v.1.15,2013-05-30 11:27:00,
2013-05-30 04:33:00,50.1,43.5,29.90,West,274,0.0,3.0,78,0.00,,,0.00,Wunderground v.1.15,2013-05-30 11:33:00,
2013-05-30 04:39:00,50.0,43.4,29.90,West,274,0.0,3.0,78,0.00,,,0.00,Wunderground v.1.15,2013-05-30 11:39:00,
2013-05-30 04:45:00,49.8,43.2,29.90,West,274,0.0,3.0,78,0.00,,,0.00,Wunderground v.1.15,2013-05-30 11:45:00,
2013-05-30 04:53:00,49.5,43.3,29.90,West,274,0.0,3.0,79,0.00,,,0.00,Wunderground v.1.15,2013-05-30 11:53:00,
2013-05-30 05:03:00,49.6,43.4,29.91,West,274,0.0,3.0,79,0.00,,,0.00,Wunderground v.1.15,2013-05-30 12:03:00,
2013-05-30 05:09:00,49.7,43.5,29.91,West,274,0.0,3.0,79,0.00,,,0.00,Wunderground v.1.15,2013-05-30 12:09:00,
2013-05-30 05:15:00,49.7,43.5,29.91,West,274,0.0,3.0,79,0.00,,,0.00,Wunderground v.1.15,2013-05-30 12:15:00,
2013-05-30 05:21:00,49.6,43.4,29.91,West,274,0.0,3.0,79,0.00,,,0.00,Wunderground v.1.15,2013-05-30 12:21:00,
2013-05-30 05:27:00,49.6,43.4,29.91,West,274,0.0,3.0,79,0.00,,,0.00,Wunderground v.1.15,2013-05-30 12:27:00,
2013-05-30 05:33:00,49.6,43.4,29.91,West,274,0.0,3.0,79,0.00,,,0.00,Wunderground v.1.15,2013-05-30 12:33:00,
2013-05-30 05:39:00,49.6,43.4,29.91,West,274,0.0,3.0,79,0.00,,,0.00,Wunderground v.1.15,2013-05-30 12:39:00,
2013-05-30 05:45:00,49.6,43.4,29.91,West,274,0.0,3.0,79,0.00,,,0.00,Wunderground v.1.15,2013-05-30 12:45:00,
2013-05-30 05:51:00,49.5,43.3,29.91,West,274,0.0,3.0,79,0.00,,,0.00,Wunderground v.1.15,2013-05-30 12:51:00,
2013-05-30 05:57:00,49.4,43.2,29.91,West,274,0.0,3.0,79,0.00,,,0.00,Wunderground v.1.15,2013-05-30 12:57:00,
2013-05-30 06:03:00,49.4,43.2,29.92,West,274,0.0,3.0,79,0.00,,,0.00,Wunderground v.1.15,2013-05-30 13:03:00,
2013-05-30 06:09:00,49.3,43.1,29.92,WNW,284,0.0,3.0,79,0.00,,,0.00,Wunderground v.1.15,2013-05-30 13:09:00,
2013-05-30 06:15:00,49.4,43.2,29.92,WNW,284,0.0,3.0,79,0.00,,,0.00,Wunderground v.1.15,2013-05-30 13:15:00,
2013-05-30 06:21:00,49.4,43.5,29.92,WNW,284,0.0,3.0,80,0.00,,,0.00,Wunderground v.1.15,2013-05-30 13:21:00,
2013-05-30 06:27:00,49.3,43.4,29.92,WNW,284,0.0,3.0,80,0.00,,,0.00,Wunderground v.1.15,2013-05-30 13:27:00,
2013-05-30 06:33:00,49.3,43.1,29.92,WNW,284,0.0,3.0,79,0.00,,,0.00,Wunderground v.1.15,2013-05-30 13:33:00,
2013-05-30 06:39:00,49.3,43.1,29.92,WNW,284,0.0,3.0,79,0.00,,,0.00,Wunderground v.1.15,2013-05-30 13:39:00,
2013-05-30 06:45:00,49.4,43.5,29.92,WNW,284,0.0,3.0,80,0.00,,,0.00,Wunderground v.1.15,2013-05-30 13:45:00,
2013-05-30 06:51:00,49.7,43.8,29.93,WNW,284,0.0,3.0,80,0.00,,,0.00,Wunderground v.1.15,2013-05-30 13:51:00,
2013-05-30 06:57:00,50.3,44.0,29.93,WNW,284,0.0,3.0,79,0.00,,,0.00,Wunderground v.1.15,2013-05-30 13:57:00,
2013-05-30 07:03:00,50.8,44.2,29.93,WNW,284,0.0,3.0,78,0.00,,,0.00,Wunderground v.1.15,2013-05-30 14:03:00,
2013-05-30 07:09:00,51.3,44.3,29.93,WNW,286,0.0,3.0,77,0.00,,,0.00,Wunderground v.1.15,2013-05-30 14:09:00,
2013-05-30 07:15:00,51.6,44.3,29.93,WNW,286,0.0,3.0,76,0.00,,,0.00,Wunderground v.1.15,2013-05-30 14:15:00,
2013-05-30 07:21:00,52.1,44.8,29.93,WNW,291,0.0,3.0,76,0.00,,,0.00,Wunderground v.1.15,2013-05-30 14:21:00,
2013-05-30 07:27:00,52.4,44.7,29.93,WNW,291,0.0,3.0,75,0.00,,,0.00,Wunderground v.1.15,2013-05-30 14:27:00,
2013-05-30 07:33:00,52.7,44.6,29.93,WNW,291,0.0,3.0,74,0.00,,,0.00,Wunderground v.1.15,2013-05-30 14:33:00,
2013-05-30 07:39:00,53.0,44.9,29.93,WNW,293,0.0,3.0,74,0.00,,,0.00,Wunderground v.1.15,2013-05-30 14:39:00,
2013-05-30 07:45:00,53.5,45.1,29.93,WNW,293,0.0,3.0,73,0.00,,,0.00,Wunderground v.1.15,2013-05-30 14:45:00,
2013-05-30 07:51:00,53.9,45.1,29.94,NW,305,0.0,3.0,72,0.00,,,0.00,Wunderground v.1.15,2013-05-30 14:51:00,
2013-05-30 07:57:00,54.5,45.3,29.94,NW,324,0.0,3.0,71,0.00,,,0.00,Wunderground v.1.15,2013-05-30 14:57:00,
2013-05-30 08:03:00,55.3,46.1,29.94,WNW,294,0.0,3.0,71,0.00,,,0.00,Wunderground v.1.15,2013-05-30 15:03:00,
2013-05-30 08:09:00,56.2,46.5,29.94,NNW,331,1.0,3.0,70,0.00,,,0.00,Wunderground v.1.15,2013-05-30 15:09:00,
2013-05-30 08:15:00,57.4,46.5,29.94,NNW,331,1.0,3.0,67,0.00,,,0.00,Wunderground v.1.15,2013-05-30 15:15:00,
2013-05-30 08:21:00,58.1,46.4,29.94,NW,322,1.0,1.0,65,0.00,,,0.00,Wunderground v.1.15,2013-05-30 15:21:00,
2013-05-30 08:27:00,59.0,46.8,29.95,NNW,338,1.0,3.0,64,0.00,,,0.00,Wunderground v.1.15,2013-05-30 15:27:00,
2013-05-30 08:33:00,59.5,47.3,29.94,NNW,330,1.0,3.0,64,0.00,,,0.00,Wunderground v.1.15,2013-05-30 15:33:00,
2013-05-30 08:39:00,60.2,47.1,29.95,NNW,336,1.0,3.0,62,0.00,,,0.00,Wunderground v.1.15,2013-05-30 15:39:00,
2013-05-30 08:45:00,60.3,47.2,29.95,NNW,332,1.0,3.0,62,0.00,,,0.00,Wunderground v.1.15,2013-05-30 15:45:00,
2013-05-30 08:51:00,60.7,47.2,29.95,NW,325,1.0,1.0,61,0.00,,,0.00,Wunderground v.1.15,2013-05-30 15:51:00,
2013-05-30 08:57:00,61.4,47.8,29.95,NNW,332,1.0,3.0,61,0.00,,,0.00,Wunderground v.1.15,2013-05-30 15:57:00,
2013-05-30 09:03:00,62.2,48.1,29.94,NNW,332,1.0,3.0,60,0.00,,,0.00,Wunderground v.1.15,2013-05-30 16:03:00,
2013-05-30 09:09:00,63.0,47.5,29.95,NNW,331,1.0,4.0,57,0.00,,,0.00,Wunderground v.1.15,2013-05-30 16:09:00,
2013-05-30 09:15:00,63.6,47.6,29.95,NNW,329,1.0,3.0,56,0.00,,,0.00,Wunderground v.1.15,2013-05-30 16:15:00,
2013-05-30 09:21:00,63.8,47.8,29.94,WNW,296,1.0,3.0,56,0.00,,,0.00,Wunderground v.1.15,2013-05-30 16:21:00,
2013-05-30 09:27:00,64.0,48.5,29.94,NW,326,1.0,3.0,57,0.00,,,0.00,Wunderground v.1.15,2013-05-30 16:27:00,
2013-05-30 09:33:00,64.2,47.7,29.94,NNW,330,1.0,3.0,55,0.00,,,0.00,Wunderground v.1.15,2013-05-30 16:33:00,
2013-05-30 09:39:00,64.8,49.2,29.94,NNW,330,1.0,3.0,57,0.00,,,0.00,Wunderground v.1.15,2013-05-30 16:39:00,
2013-05-30 09:45:00,66.3,48.7,29.94,NNW,330,1.0,3.0,53,0.00,,,0.00,Wunderground v.1.15,2013-05-30 16:45:00,
2013-05-30 09:51:00,66.5,48.8,29.94,NNW,331,1.0,1.0,53,0.00,,,0.00,Wunderground v.1.15,2013-05-30 16:51:00,
2013-05-30 09:57:00,66.6,48.9,29.94,NW,321,1.0,3.0,53,0.00,,,0.00,Wunderground v.1.15,2013-05-30 16:57:00,
2013-05-30 10:03:00,66.8,48.6,29.94,NW,321,1.0,3.0,52,0.00,,,0.00,Wunderground v.1.15,2013-05-30 17:03:00,
2013-05-30 10:09:00,67.3,49.1,29.94,NW,324,0.0,3.0,52,0.00,,,0.00,Wunderground v.1.15,2013-05-30 17:09:00,
2013-05-30 10:15:00,67.7,49.9,29.94,NW,325,1.0,3.0,53,0.00,,,0.00,Wunderground v.1.15,2013-05-30 17:15:00,
2013-05-30 10:21:00,68.3,49.5,29.94,NNW,334,1.0,1.0,51,0.00,,,0.00,Wunderground v.1.15,2013-05-30 17:21:00,
2013-05-30 10:27:00,69.6,50.7,29.94,ENE,71,1.0,3.0,51,0.00,,,0.00,Wunderground v.1.15,2013-05-30 17:27:00,
2013-05-30 10:33:00,69.9,48.7,29.93,NW,305,1.0,4.0,47,0.00,,,0.00,Wunderground v.1.15,2013-05-30 17:33:00,
2013-05-30 10:39:00,69.9,49.9,29.93,NW,306,1.0,4.0,49,0.00,,,0.00,Wunderground v.1.15,2013-05-30 17:39:00,
2013-05-30 10:45:00,70.1,49.5,29.93,NW,306,1.0,3.0,48,0.00,,,0.00,Wunderground v.1.15,2013-05-30 17:45:00,
2013-05-30 10:51:00,70.8,49.6,29.93,NW,306,0.0,3.0,47,0.00,,,0.00,Wunderground v.1.15,2013-05-30 17:51:00,
2013-05-30 10:57:00,71.4,50.1,29.93,NNW,331,1.0,3.0,47,0.00,,,0.00,Wunderground v.1.15,2013-05-30 17:57:00,
2013-05-30 11:03:00,72.0,49.5,29.93,NW,319,1.0,3.0,45,0.00,,,0.00,Wunderground v.1.15,2013-05-30 18:03:00,
2013-05-30 11:09:00,72.4,50.4,29.93,NW,320,1.0,3.0,46,0.00,,,0.00,Wunderground v.1.15,2013-05-30 18:09:00,
2013-05-30 11:15:00,72.4,49.3,29.93,North,350,1.0,3.0,44,0.00,,,0.00,Wunderground v.1.15,2013-05-30 18:15:00,
2013-05-30 11:21:00,72.9,49.7,29.93,ENE,67,1.0,1.0,44,0.00,,,0.00,Wunderground v.1.15,2013-05-30 18:21:00,
2013-05-30 11:27:00,73.7,49.8,29.93,NW,320,1.0,3.0,43,0.00,,,0.00,Wunderground v.1.15,2013-05-30 18:27:00,
2013-05-30 11:33:00,74.1,49.5,29.93,ENE,60,1.0,3.0,42,0.00,,,0.00,Wunderground v.1.15,2013-05-30 18:33:00,
2013-05-30 11:39:00,74.8,50.8,29.93,North,5,0.0,3.0,43,0.00,,,0.00,Wunderground v.1.15,2013-05-30 18:39:00,
2013-05-30 11:45:00,75.2,52.4,29.93,North,355,0.0,3.0,45,0.00,,,0.00,Wunderground v.1.15,2013-05-30 18:45:00,
2013-05-30 11:51:00,76.3,52.2,29.93,NW,319,0.0,3.0,43,0.00,,,0.00,Wunderground v.1.15,2013-05-30 18:51:00,
2013-05-30 11:57:00,77.0,50.8,29.92,NNW,343,0.0,3.0,40,0.00,,,0.00,Wunderground v.1.15,2013-05-30 18:57:00,
2013-05-30 12:03:00,77.4,51.2,29.93,WNW,303,0.0,3.0,40,0.00,,,0.00,Wunderground v.1.15,2013-05-30 19:03:00,
2013-05-30 12:09:00,77.8,50.2,29.93,NW,313,1.0,3.0,38,0.00,,,0.00,Wunderground v.1.15,2013-05-30 19:09:00,
2013-05-30 12:15:00,78.0,50.3,29.92,NE,48,0.0,1.0,38,0.00,,,0.00,Wunderground v.1.15,2013-05-30 19:15:00,
2013-05-30 12:21:00,78.0,51.0,29.92,NNW,337,0.0,0.0,39,0.00,,,0.00,Wunderground v.1.15,2013-05-30 19:21:00,
2013-05-30 12:27:00,78.0,49.6,29.92,NNW,337,0.0,0.0,37,0.00,,,0.00,Wunderground v.1.15,2013-05-30 19:27:00,
2013-05-30 12:33:00,77.6,49.3,29.91,South,174,0.0,1.0,37,0.00,,,0.00,Wunderground v.1.15,2013-05-30 19:33:00,
2013-05-30 12:39:00,78.0,50.3,29.91,South,174,0.0,1.0,38,0.00,,,0.00,Wunderground v.1.15,2013-05-30 19:39:00,
2013-05-30 12:45:00,78.4,49.2,29.91,NE,56,1.0,1.0,36,0.00,,,0.00,Wunderground v.1.15,2013-05-30 19:45:00,
2013-05-30 12:51:00,78.1,49.7,29.91,NNW,339,1.0,1.0,37,0.00,,,0.00,Wunderground v.1.15,2013-05-30 19:51:00,
2013-05-30 12:57:00,78.1,50.4,29.91,SSW,197,1.0,3.0,38,0.00,,,0.00,Wunderground v.1.15,2013-05-30 19:57:00,
2013-05-30 13:03:00,78.7,51.7,29.91,SSW,196,0.0,0.0,39,0.00,,,0.00,Wunderground v.1.15,2013-05-30 20:03:00,
2013-05-30 13:09:00,79.7,51.8,29.91,SSW,196,0.0,0.0,38,0.00,,,0.00,Wunderground v.1.15,2013-05-30 20:09:00,
2013-05-30 13:15:00,80.4,49.5,29.91,WNW,284,0.0,1.0,34,0.00,,,0.00,Wunderground v.1.15,2013-05-30 20:15:00,
2013-05-30 13:21:00,80.3,50.1,29.91,NW,317,1.0,1.0,35,0.00,,,0.00,Wunderground v.1.15,2013-05-30 20:21:00,
2013-05-30 13:27:00,80.3,49.4,29.91,NW,315,1.0,2.0,34,0.00,,,0.00,Wunderground v.1.15,2013-05-30 20:27:00,
2013-05-30 13:33:00,80.4,49.5,29.91,NW,316,1.0,1.0,34,0.00,,,0.00,Wunderground v.1.15,2013-05-30 20:33:00,
2013-05-30 13:39:00,80.8,48.2,29.91,WNW,285,1.0,2.0,32,0.00,,,0.00,Wunderground v.1.15,2013-05-30 20:39:00,
2013-05-30 13:45:00,81.3,49.4,29.90,NNW,348,1.0,2.0,33,0.00,,,0.00,Wunderground v.1.15,2013-05-30 20:45:00,
2013-05-30 13:51:00,82.2,51.0,29.90,NNW,327,0.0,0.0,34,0.00,,,0.00,Wunderground v.1.15,2013-05-30 20:51:00,
2013-05-30 13:57:00,83.0,50.9,29.89,SW,234,0.0,0.0,33,0.00,,,0.00,Wunderground v.1.15,2013-05-30 20:57:00,
2013-05-30 14:03:00,84.0,51.8,29.89,SSW,213,0.0,0.0,33,0.00,,,0.00,Wunderground v.1.15,2013-05-30 21:03:00,
2013-05-30 14:09:00,84.9,51.7,29.89,SW,215,1.0,3.0,32,0.00,,,0.00,Wunderground v.1.15,2013-05-30 21:09:00,
2013-05-30 14:15:00,85.8,51.7,29.89,SW,215,0.0,1.0,31,0.00,,,0.00,Wunderground v.1.15,2013-05-30 21:15:00,
2013-05-30 14:21:00,86.7,51.6,29.89,SW,215,0.0,0.0,30,0.00,,,0.00,Wunderground v.1.15,2013-05-30 21:21:00,
2013-05-30 14:27:00,87.2,49.1,29.89,SW,224,0.0,1.0,27,0.00,,,0.00,Wunderground v.1.15,2013-05-30 21:27:00,
2013-05-30 14:33:00,86.3,51.2,29.89,SW,223,0.0,1.0,30,0.00,,,0.00,Wunderground v.1.15,2013-05-30 21:33:00,
2013-05-30 14:39:00,85.8,50.8,29.88,NNW,338,0.0,2.0,30,0.00,,,0.00,Wunderground v.1.15,2013-05-30 21:39:00,
2013-05-30 14:45:00,85.7,48.8,29.88,SSW,198,0.0,0.0,28,0.00,,,0.00,Wunderground v.1.15,2013-05-30 21:45:00,
2013-05-30 14:51:00,85.8,48.9,29.88,WNW,284,0.0,0.0,28,0.00,,,0.00,Wunderground v.1.15,2013-05-30 21:51:00,
2013-05-30 14:57:00,85.7,50.7,29.88,WSW,242,0.0,0.0,30,0.00,,,0.00,Wunderground v.1.15,2013-05-30 21:57:00,
2013-05-30 15:03:00,85.9,48.0,29.88,WSW,238,0.0,0.0,27,0.00,,,0.00,Wunderground v.1.15,2013-05-30 22:03:00,
2013-05-30 15:09:00,85.8,48.0,29.88,South,173,1.0,2.0,27,0.00,,,0.00,Wunderground v.1.15,2013-05-30 22:09:00,
2013-05-30 15:15:00,85.2,49.4,29.87,SW,215,1.0,1.0,29,0.00,,,0.00,Wunderground v.1.15,2013-05-30 22:15:00,
2013-05-30 15:21:00,85.3,49.4,29.88,WSW,247,1.0,1.0,29,0.00,,,0.00,Wunderground v.1.15,2013-05-30 22:21:00,
2013-05-30 15:27:00,85.3,51.2,29.87,SW,221,0.0,2.0,31,0.00,,,0.00,Wunderground v.1.15,2013-05-30 22:27:00,
2013-05-30 15:33:00,85.8,49.9,29.87,SW,217,0.0,0.0,29,0.00,,,0.00,Wunderground v.1.15,2013-05-30 22:33:00,
2013-05-30 15:39:00,85.8,48.9,29.87,SW,226,0.0,1.0,28,0.00,,,0.00,Wunderground v.1.15,2013-05-30 22:39:00,
2013-05-30 15:45:00,84.9,48.2,29.87,SW,221,1.0,2.0,28,0.00,,,0.00,Wunderground v.1.15,2013-05-30 22:45:00,
2013-05-30 15:51:00,84.1,49.3,29.87,SW,225,1.0,1.0,30,0.00,,,0.00,Wunderground v.1.15,2013-05-30 22:51:00,
2013-05-30 15:57:00,83.5,49.7,29.87,WNW,286,1.0,2.0,31,0.00,,,0.00,Wunderground v.1.15,2013-05-30 22:57:00,
2013-05-30 16:03:00,83.0,50.1,29.87,SSW,200,1.0,6.0,32,0.00,,,0.00,Wunderground v.1.15,2013-05-30 23:03:00,
2013-05-30 16:09:00,82.7,48.1,29.87,SSW,204,1.0,6.0,30,0.00,,,0.00,Wunderground v.1.15,2013-05-30 23:09:00,
2013-05-30 16:15:00,82.4,47.8,29.87,SW,235,1.0,2.0,30,0.00,,,0.00,Wunderground v.1.15,2013-05-30 23:15:00,
2013-05-30 16:21:00,82.3,47.8,29.87,South,184,2.0,2.0,30,0.00,,,0.00,Wunderground v.1.15,2013-05-30 23:21:00,
2013-05-30 16:27:00,82.2,49.4,29.87,SW,214,1.0,2.0,32,0.00,,,0.00,Wunderground v.1.15,2013-05-30 23:27:00,
2013-05-30 16:33:00,82.1,48.5,29.86,SW,227,1.0,1.0,31,0.00,,,0.00,Wunderground v.1.15,2013-05-30 23:33:00,
2013-05-30 16:39:00,82.1,47.6,29.86,South,186,1.0,4.0,30,0.00,,,0.00,Wunderground v.1.15,2013-05-30 23:39:00,
2013-05-30 16:45:00,82.0,49.2,29.86,WNW,299,1.0,4.0,32,0.00,,,0.00,Wunderground v.1.15,2013-05-30 23:45:00,
2013-05-30 16:51:00,81.9,48.3,29.86,SSW,210,1.0,1.0,31,0.00,,,0.00,Wunderground v.1.15,2013-05-30 23:51:00,
2013-05-30 16:57:00,81.8,47.3,29.86,SW,225,1.0,3.0,30,0.00,,,0.00,Wunderground v.1.15,2013-05-30 23:57:00,
2013-05-30 17:03:00,81.8,47.3,29.86,SSW,198,1.0,1.0,30,0.00,,,0.00,Wunderground v.1.15,2013-05-31 00:03:00,
2013-05-30 17:09:00,82.2,48.6,29.86,SSW,209,1.0,3.0,31,0.00,,,0.00,Wunderground v.1.15,2013-05-31 00:09:00,
2013-05-30 17:15:00,82.8,49.9,29.86,SW,230,1.0,1.0,32,0.00,,,0.00,Wunderground v.1.15,2013-05-31 00:15:00,
2013-05-30 17:21:00,83.1,50.2,29.86,South,173,1.0,2.0,32,0.00,,,0.00,Wunderground v.1.15,2013-05-31 00:21:00,
2013-05-30 17:27:00,82.6,48.0,29.87,SSW,200,1.0,2.0,30,0.00,,,0.00,Wunderground v.1.15,2013-05-31 00:27:00,
2013-05-30 17:33:00,81.9,49.1,29.86,South,180,1.0,3.0,32,0.00,,,0.00,Wunderground v.1.15,2013-05-31 00:33:00,
2013-05-30 17:39:00,81.4,49.5,29.87,NW,305,0.0,3.0,33,0.00,,,0.00,Wunderground v.1.15,2013-05-31 00:39:00,
2013-05-30 17:45:00,80.9,48.3,29.87,SSE,163,0.0,0.0,32,0.00,,,0.00,Wunderground v.1.15,2013-05-31 00:45:00,
2013-05-30 17:51:00,80.6,48.8,29.87,South,181,0.0,0.0,33,0.00,,,0.00,Wunderground v.1.15,2013-05-31 00:51:00,
2013-05-30 17:57:00,80.4,48.7,29.86,ENE,76,0.0,0.0,33,0.00,,,0.00,Wunderground v.1.15,2013-05-31 00:57:00,
2013-05-30 18:03:00,80.3,48.6,29.86,NW,314,0.0,2.0,33,0.00,,,0.00,Wunderground v.1.15,2013-05-31 01:03:00,
2013-05-30 18:09:00,80.0,47.5,29.86,WNW,296,1.0,3.0,32,0.00,,,0.00,Wunderground v.1.15,2013-05-31 01:09:00,
2013-05-30 18:15:00,79.9,47.4,29.86,WNW,295,1.0,1.0,32,0.00,,,0.00,Wunderground v.1.15,2013-05-31 01:15:00,
2013-05-30 18:21:00,79.7,48.8,29.87,NNW,340,0.0,3.0,34,0.00,,,0.00,Wunderground v.1.15,2013-05-31 01:21:00,
2013-05-30 18:27:00,79.6,48.0,29.87,NW,311,1.0,6.0,33,0.00,,,0.00,Wunderground v.1.15,2013-05-31 01:27:00,
2013-05-30 18:33:00,79.3,49.3,29.86,NW,317,1.0,7.0,35,0.00,,,0.00,Wunderground v.1.15,2013-05-31 01:33:00,
2013-05-30 18:39:00,79.0,49.0,29.87,NW,317,0.0,7.0,35,0.00,,,0.00,Wunderground v.1.15,2013-05-31 01:39:00,
2013-05-30 18:45:00,78.8,48.1,29.87,NW,306,1.0,7.0,34,0.00,,,0.00,Wunderground v.1.15,2013-05-31 01:45:00,
2013-05-30 18:51:00,78.7,48.7,29.87,NW,306,0.0,7.0,35,0.00,,,0.00,Wunderground v.1.15,2013-05-31 01:51:00,
2013-05-30 18:57:00,78.6,47.1,29.87,WNW,303,0.0,7.0,33,0.00,,,0.00,Wunderground v.1.15,2013-05-31 01:57:00,
2013-05-30 19:03:00,78.4,46.9,29.87,WNW,303,1.0,7.0,33,0.00,,,0.00,Wunderground v.1.15,2013-05-31 02:03:00,
2013-05-30 19:09:00,78.2,46.7,29.87,NW,304,1.0,7.0,33,0.00,,,0.00,Wunderground v.1.15,2013-05-31 02:09:00,
2013-05-30 19:15:00,78.0,46.6,29.87,NW,304,1.0,7.0,33,0.00,,,0.00,Wunderground v.1.15,2013-05-31 02:15:00,
2013-05-30 19:21:00,77.8,47.2,29.87,NW,305,1.0,1.0,34,0.00,,,0.00,Wunderground v.1.15,2013-05-31 02:21:00,
2013-05-30 19:27:00,77.4,46.8,29.87,NW,305,1.0,7.0,34,0.00,,,0.00,Wunderground v.1.15,2013-05-31 02:27:00,
2013-05-30 19:33:00,77.0,47.2,29.87,NW,305,1.0,7.0,35,0.00,,,0.00,Wunderground v.1.15,2013-05-31 02:33:00,
2013-05-30 19:39:00,76.5,47.6,29.87,NW,305,1.0,7.0,36,0.00,,,0.00,Wunderground v.1.15,2013-05-31 02:39:00,
2013-05-30 19:45:00,75.9,47.8,29.88,NW,305,0.0,7.0,37,0.00,,,0.00,Wunderground v.1.15,2013-05-31 02:45:00,
2013-05-30 19:51:00,75.4,47.3,29.88,NW,305,0.0,7.0,37,0.00,,,0.00,Wunderground v.1.15,2013-05-31 02:51:00,
2013-05-30 19:57:00,74.8,46.8,29.89,NW,305,0.0,7.0,37,0.00,,,0.00,Wunderground v.1.15,2013-05-31 02:57:00,
2013-05-30 20:03:00,74.3,46.3,29.89,NW,305,0.0,7.0,37,0.00,,,0.00,Wunderground v.1.15,2013-05-31 03:03:00,
2013-05-30 20:09:00,73.8,48.0,29.89,NW,305,0.0,7.0,40,0.00,,,0.00,Wunderground v.1.15,2013-05-31 03:09:00,
2013-05-30 20:15:00,73.2,47.4,29.89,NW,305,0.0,7.0,40,0.00,,,0.00,Wunderground v.1.15,2013-05-31 03:15:00,
2013-05-30 20:21:00,72.5,47.5,29.89,NW,305,0.0,7.0,41,0.00,,,0.00,Wunderground v.1.15,2013-05-31 03:21:00,
2013-05-30 20:27:00,71.7,46.7,29.89,NW,305,0.0,7.0,41,0.00,,,0.00,Wunderground v.1.15,2013-05-31 03:27:00,
2013-05-30 20:33:00,71.0,46.7,29.89,NW,305,0.0,7.0,42,0.00,,,0.00,Wunderground v.1.15,2013-05-31 03:33:00,
2013-05-30 20:39:00,70.4,46.2,29.90,NW,305,0.0,7.0,42,0.00,,,0.00,Wunderground v.1.15,2013-05-31 03:39:00,
2013-05-30 20:45:00,69.9,46.4,29.90,NW,305,0.0,7.0,43,0.00,,,0.00,Wunderground v.1.15,2013-05-31 03:45:00,
2013-05-30 20:51:00,69.5,46.0,29.90,NW,305,0.0,7.0,43,0.00,,,0.00,Wunderground v.1.15,2013-05-31 03:51:00,
2013-05-30 20:57:00,69.2,46.4,29.90,NW,305,0.0,7.0,44,0.00,,,0.00,Wunderground v.1.15,2013-05-31 03:57:00,
2013-05-30 21:01:00,69.0,46.2,29.90,NW,305,0.0,7.0,44,0.00,,,0.00,Wunderground v.1.15,2013-05-31 04:01:00,
2013-05-30 21:03:00,68.9,46.1,29.90,NW,305,0.0,7.0,44,0.00,,,0.00,Wunderground v.1.15,2013-05-31 04:03:00,
2013-05-30 21:09:00,68.7,45.9,29.91,NW,305,0.0,7.0,44,0.00,,,0.00,Wunderground v.1.15,2013-05-31 04:09:00,
2013-05-30 21:11:00,68.6,45.8,29.91,NW,305,0.0,7.0,44,0.00,,,0.00,Wunderground v.1.15,2013-05-31 04:11:00,
2013-05-30 21:17:00,68.3,46.1,29.91,NW,305,0.0,7.0,45,0.00,,,0.00,Wunderground v.1.15,2013-05-31 04:17:00,
2013-05-30 21:23:00,67.9,45.8,29.92,NW,305,0.0,7.0,45,0.00,,,0.00,Wunderground v.1.15,2013-05-31 04:23:00,
2013-05-30 21:29:00,67.6,46.1,29.91,NW,305,0.0,7.0,46,0.00,,,0.00,Wunderground v.1.15,2013-05-31 04:29:00,
2013-05-30 21:35:00,67.1,46.2,29.92,NW,305,0.0,7.0,47,0.00,,,0.00,Wunderground v.1.15,2013-05-31 04:35:00,
2013-05-30 21:41:00,66.4,45.5,29.92,NW,305,0.0,7.0,47,0.00,,,0.00,Wunderground v.1.15,2013-05-31 04:41:00,
2013-05-30 21:47:00,65.9,45.6,29.92,NW,305,1.0,7.0,48,0.00,,,0.00,Wunderground v.1.15,2013-05-31 04:47:00,
2013-05-30 21:53:00,65.6,45.4,29.92,NW,305,0.0,7.0,48,0.00,,,0.00,Wunderground v.1.15,2013-05-31 04:53:00,
2013-05-30 21:59:00,65.3,45.6,29.92,NW,305,0.0,7.0,49,0.00,,,0.00,Wunderground v.1.15,2013-05-31 04:59:00,
2013-05-30 22:05:00,65.1,45.5,29.92,NW,305,0.0,7.0,49,0.00,,,0.00,Wunderground v.1.15,2013-05-31 05:05:00,
2013-05-30 22:11:00,64.8,45.2,29.92,NW,305,0.0,7.0,49,0.00,,,0.00,Wunderground v.1.15,2013-05-31 05:11:00,
2013-05-30 22:17:00,64.6,45.5,29.93,NW,305,0.0,7.0,50,0.00,,,0.00,Wunderground v.1.15,2013-05-31 05:17:00,
2013-05-30 22:23:00,64.6,45.0,29.93,NW,305,1.0,2.0,49,0.00,,,0.00,Wunderground v.1.15,2013-05-31 05:23:00,
2013-05-30 22:29:00,64.5,44.9,29.93,NW,305,1.0,7.0,49,0.00,,,0.00,Wunderground v.1.15,2013-05-31 05:29:00,
2013-05-30 22:35:00,64.3,45.3,29.93,NW,305,0.0,7.0,50,0.00,,,0.00,Wunderground v.1.15,2013-05-31 05:35:00,
2013-05-30 22:41:00,64.0,45.0,29.93,NW,305,0.0,7.0,50,0.00,,,0.00,Wunderground v.1.15,2013-05-31 05:41:00,
2013-05-30 22:47:00,63.7,44.7,29.93,NW,305,0.0,7.0,50,0.00,,,0.00,Wunderground v.1.15,2013-05-31 05:47:00,
2013-05-30 22:53:00,63.6,44.6,29.93,NW,305,1.0,7.0,50,0.00,,,0.00,Wunderground v.1.15,2013-05-31 05:53:00,
2013-05-30 22:59:00,63.5,44.5,29.93,NNW,347,1.0,7.0,50,0.00,,,0.00,Wunderground v.1.15,2013-05-31 05:59:00,
2013-05-30 23:05:00,63.2,44.8,29.93,NNW,347,0.0,7.0,51,0.00,,,0.00,Wunderground v.1.15,2013-05-31 06:05:00,
2013-05-30 23:11:00,62.7,44.8,29.93,NNW,347,0.0,7.0,52,0.00,,,0.00,Wunderground v.1.15,2013-05-31 06:11:00,
2013-05-30 23:17:00,62.1,44.8,29.94,NNW,347,0.0,7.0,53,0.00,,,0.00,Wunderground v.1.15,2013-05-31 06:17:00,
2013-05-30 23:23:00,61.7,44.9,29.94,NNW,347,0.0,7.0,54,0.00,,,0.00,Wunderground v.1.15,2013-05-31 06:23:00,
2013-05-30 23:29:00,61.3,44.5,29.94,NNW,347,0.0,7.0,54,0.00,,,0.00,Wunderground v.1.15,2013-05-31 06:29:00,
2013-05-30 23:35:00,60.8,44.5,29.94,NNW,347,0.0,7.0,55,0.00,,,0.00,Wunderground v.1.15,2013-05-31 06:35:00,
2013-05-30 23:41:00,60.4,44.2,29.94,NNW,347,0.0,7.0,55,0.00,,,0.00,Wunderground v.1.15,2013-05-31 06:41:00,
2013-05-30 23:47:00,60.1,44.3,29.94,NNW,347,0.0,7.0,56,0.00,,,0.00,Wunderground v.1.15,2013-05-31 06:47:00,
2013-05-30 23:53:00,59.8,44.1,29.94,NNW,347,0.0,7.0,56,0.00,,,0.00,Wunderground v.1.15,2013-05-31 06:53:00,
2013-05-30 23:59:00,59.6,44.3,29.94,NNW,347,0.0,7.0,57,0.00,,,0.00,Wunderground v.1.15,2013-05-31 06:59:00,